SCP
3 2 1 1 0 0 0 0 0 0 0 0 0 1 0 0 0 0 0 0 1 1 1 1 1 1 1 1 2 2 1 1 1 1 1 1 1 1 1 1 1 1 1
2 2 1 1 0 0 0 0 0 0 0 0 0 1 0 0 0 0 0 0 0 0 1 1 1 1 1 1 1 2 2 1 1 1 1 1 1 1 1 1 1 1 1
2 2 1 1 1 0 0 0 0 0 0 0 0 0 0 0 0 0 0 0 0 0 0 1 1 1 1 1 1 2 2 2 1 1 1 1 1 1 1 1 1 1 1
1 1 1 1 1 0 0 0 0 0 0 0 0 0 0 0 0 0 0 0 0 0 0 1 1 1 1 1 1 2 2 2 1 1 1 1 1 1 1 1 1 1 1
1 1 1 1 1 0 0 0 0 0 0 0 0 0 0 0 0 0 0 0 0 0 0 0 1 1 1 1 1 1 2 2 1 1 1 1 1 1 1 1 1 0 0
1 1 1 1 0 0 0 0 0 0 0 0 0 0 0 0 0 0 0 0 0 0 0 0 0 0 1 1 1 1 2 2 2 1 1 1 1 1 1 1 1 0 0
0 0 0 0 0 0 0 0 0 0 0 0 0 0 0 0 0 0 0 0 0 0 0 0 0 0 0 1 1 1 1 2 2 2 2 1 1 1 1 1 1 1 0
0 0 0 0 0 0 0 0 0 0 0 0 0 0 0 0 0 0 0 0 0 0 0 0 0 0 0 0 1 1 1 1 2 2 2 2 1 1 1 1 1 1 1
0 0 0 0 0 0 0 0 0 0 0 0 0 0 0 0 0 0 0 0 0 0 0 0 0 0 0 0 0 0 1 1 1 2 2 2 1 1 1 1 1 1 1
0 0 0 0 0 0 0 0 0 0 0 0 0 0 0 0 0 0 0 0 0 0 0 0 0 0 0 0 0 0 0 1 1 2 2 2 1 1 1 1 1 1 1
0 0 0 0 0 0 0 0 0 0 0 0 0 0 0 0 0 0 0 0 0 0 0 0 0 0 0 0 0 0 0 0 1 1 1 2 2 1 1 1 1 1 1
0 0 0 0 0 0 0 0 0 0 0 0 0 0 0 0 0 0 0 0 0 0 0 0 0 0 0 0 0 0 0 0 0 1 1 2 2 2 1 1 1 1 1
0 0 0 0 0 0 0 0 0 0 0 0 0 0 0 0 0 0 0 0 0 0 0 0 0 0 0 0 0 0 0 0 0 0 1 1 2 1 1 1 1 1 1
0 0 0 0 0 0 0 0 0 0 0 0 0 0 0 0 0 0 0 0 0 0 0 0 0 0 0 0 0 0 0 0 0 0 1 1 1 1 1 1 1 1 1
0 0 0 0 0 0 0 0 0 0 0 0 0 0 0 0 0 0 0 0 0 0 0 0 0 0 0 0 0 0 0 0 0 0 0 0 0 0 1 1 1 1 0
0 0 0 0 0 0 0 0 0 0 0 0 0 0 0 0 0 0 0 0 0 0 0 0 0 0 0 0 0 0 0 0 0 0 0 0 0 0 0 0 0 0 0
0 0 0 0 0 0 0 0 0 0 0 0 0 0 0 0 0 0 0 0 0 0 0 0 0 0 0 0 0 0 0 0 0 0 0 0 0 0 0 0 0 0 0
0 0 0 0 0 0 0 0 0 0 0 0 0 0 0 0 0 0 0 0 0 0 0 0 0 0 0 0 0 0 0 0 0 0 0 0 0 0 0 0 0 0 0
0 0 0 0 0 0 0 0 0 0 0 0 0 0 0 0 0 0 0 0 0 0 0 0 0 0 0 0 0 0 0 0 0 0 0 0 0 0 0 0 0 0 0
0 0 0 0 0 0 0 0 0 0 0 0 0 0 0 0 0 0 0 0 0 0 0 0 0 0 0 0 0 0 0 0 0 0 0 0 0 0 0 0 0 0 0
0 0 0 0 0 0 0 0 0 0 0 0 0 0 0 0 0 0 0 0 0 0 0 0 0 0 0 0 0 0 0 0 0 0 0 0 0 0 0 0 0 0 0
0 0 0 0 0 0 0 0 0 0 0 0 0 0 0 0 0 0 0 0 0 0 0 0 0 0 0 0 0 0 0 0 0 0 0 0 0 0 0 0 0 0 0
0 0 0 0 0 0 0 0 0 0 0 0 0 0 0 0 0 0 0 0 0 0 0 0 0 0 0 0 0 0 0 0 0 0 0 0 0 0 0 0 0 0 0
0 0 0 0 0 0 0 0 0 0 0 0 0 0 0 0 0 0 0 0 0 0 0 0 0 0 0 0 0 0 0 0 0 0 0 0 0 0 0 0 0 0 0
0 0 0 0 0 0 0 0 0 0 0 0 0 0 0 0 0 0 0 0 0 0 0 0 0 0 0 0 0 0 0 0 0 0 0 0 0 0 0 0 0 0 0
0 0 0 0 0 0 0 0 0 0 0 0 0 0 0 0 0 0 0 0 0 0 0 0 0 0 0 0 0 0 0 0 0 0 0 0 0 0 0 0 0 0 0
Wind_Speed
1 1 1 1 2 1 1 1 2 2 2 2 2 2 2 2 2 2 1 2 3 4 6 6 6 7 8 8 8 8 8 7 7 7 7 6 6 6 7 7 7 7 7
1 1 1 1 1 1 1 1 1 1 1 1 2 1 1 1 2 2 2 1 1 4 5 6 7 7 8 8 9 8 8 8 7 6 6 6 6 5 6 6 6 6 6
1 1 0 0 0 1 1 1 1 1 1 1 2 1 1 1 1 1 2 1 1 1 3 5 5 7 7 8 8 9 8 8 7 7 6 5 5 5 5 6 6 6 6
0 0 0 0 0 0 0 1 1 1 1 1 1 1 1 0 0 0 1 1 1 0 1 3 3 5 6 7 7 8 8 8 7 6 6 5 5 5 5 5 5 5 5
0 0 0 0 0 0 0 0 0 0 0 1 1 1 1 0 0 0 0 0 0 0 0 1 1 2 4 5 6 7 8 8 7 6 6 6 5 5 5 5 5 5 5
0 0 0 1 0 0 0 0 0 0 0 0 0 1 1 1 0 0 1 0 0 0 0 1 1 1 2 4 5 6 7 8 7 6 5 5 5 5 5 5 5 4 4
0 1 0 0 0 1 1 1 1 0 0 0 1 1 2 1 0 1 1 1 1 1 1 1 1 1 1 2 4 5 5 7 7 6 6 5 5 5 5 5 5 4 4
0 0 0 0 1 1 1 1 1 1 1 1 1 1 0 1 1 1 1 1 1 1 1 2 2 2 1 1 2 4 4 6 7 6 6 6 5 5 4 4 5 4 4
1 1 1 1 1 1 2 2 2 2 2 1 1 2 2 2 1 2 1 0 0 0 1 2 2 2 2 1 1 2 3 4 6 7 6 6 6 5 5 4 4 4 3
1 1 1 1 1 1 2 2 2 1 2 2 1 1 1 2 2 1 2 1 1 1 1 2 2 2 2 2 1 1 2 3 5 6 6 6 6 6 5 5 4 3 3
2 2 2 2 2 1 2 2 2 2 2 2 2 1 1 0 1 2 2 2 2 2 1 1 1 2 2 2 2 2 2 3 4 5 6 6 6 5 5 4 3 3 2
2 2 2 2 2 2 2 3 2 2 2 2 2 2 2 2 2 2 2 2 2 2 2 2 1 2 2 2 3 3 3 4 4 5 5 6 5 5 4 4 4 4 3
2 3 2 2 2 2 3 2 3 3 3 3 3 3 2 2 2 2 2 2 2 2 2 2 2 2 2 2 2 3 4 4 4 5 5 5 5 4 4 4 4 4 3
3 3 3 3 3 3 3 3 3 3 3 3 4 3 3 2 2 2 2 2 2 2 2 3 1 1 2 2 2 3 3 4 5 5 5 5 4 4 3 3 3 3 3
3 3 3 3 3 4 4 3 3 4 3 4 3 4 3 3 2 2 2 3 3 4 5 3 2 2 1 1 2 2 3 4 5 5 5 5 4 4 4 4 3 3 3
4 4 4 4 4 4 4 4 4 4 4 4 3 4 4 3 3 3 3 3 3 4 4 3 2 2 1 2 2 2 3 4 5 5 5 5 5 5 4 4 4 3 3
4 4 5 4 4 4 4 4 4 4 5 4 4 4 5 4 3 3 3 3 3 3 4 3 2 2 2 2 2 1 2 2 3 5 5 5 5 5 5 4 4 4 4
4 4 5 5 5 5 4 5 5 5 5 6 5 5 5 4 4 4 4 4 3 3 4 4 3 2 3 3 2 2 2 2 2 5 5 5 5 5 5 5 4 4 4
4 4 4 5 5 5 5 5 5 5 5 6 6 6 6 5 6 4 4 4 3 3 3 3 3 2 2 2 2 2 2 2 2 4 5 5 5 5 5 5 5 5 5
4 4 4 5 5 5 5 5 5 5 5 5 6 6 6 7 7 6 5 5 4 4 3 3 3 2 2 2 2 2 2 1 2 2 4 4 5 5 6 6 6 6 6
3 3 4 4 4 4 5 5 5 5 5 5 5 5 6 7 8 7 6 5 5 4 4 4 4 3 3 3 4 3 3 2 2 2 2 3 3 3 4 6 6 7 7
3 3 4 4 4 4 7 7 5 5 5 5 6 6 6 7 9 10 10 9 8 7 6 6 5 5 5 4 3 4 3 2 3 2 2 3 3 3 4 4 6 7 7
3 4 4 4 4 5 8 7 7 4 5 5 6 5 5 6 7 6 7 9 9 11 10 7 7 7 6 5 5 5 5 4 4 2 1 4 3 4 4 4 7 8 8
3 3 4 4 4 6 8 8 7 4 4 5 6 6 6 6 6 6 5 5 6 7 8 7 7 7 6 5 5 5 4 2 2 2 2 3 3 3 3 3 6 7 7
3 3 4 3 4 5 7 8 6 3 4 5 5 6 6 7 10 10 6 6 6 6 7 9 9 8 8 8 5 3 3 3 3 3 2 3 3 2 3 3 5 7 7
3 3 4 3 3 4 6 7 7 3 4 4 4 5 8 9 10 10 7 6 7 6 5 4 5 6 6 7 8 6 5 5 3 3 3 3 2 1 2 2 3 3 4
Wind_Direction
84 58 44 30 14 19 25 16 17 20 16 13 26 54 51 39 27 14 26 128 158 168 171 170 169 164 160 154 147 143 140 135 129 125 121 117 118 119 119 116 111 108 104
110 99 72 51 9 360 1 24 23 20 8 17 22 37 62 40 39 21 15 20 142 171 179 178 175 169 164 162 157 153 150 147 143 138 132 129 126 127 128 123 119 115 111
107 117 104 94 325 341 1 36 39 32 27 21 15 15 43 48 49 29 15 8 345 150 170 178 178 173 167 164 161 161 156 153 148 143 140 141 140 136 135 132 125 121 116
40 73 138 294 287 336 58 57 76 40 19 10 357 349 351 27 48 58 23 23 11 32 137 147 159 169 168 168 163 159 156 155 157 156 154 151 147 145 139 137 134 128 120
12 3 250 278 277 135 117 83 50 125 71 9 337 347 348 341 234 119 120 352 32 360 147 128 127 148 165 171 172 167 158 155 155 156 158 159 154 152 144 139 140 138 132
82 44 352 313 282 154 139 128 154 33 178 195 46 23 348 302 246 195 211 224 176 157 153 146 156 192 177 179 180 174 169 166 164 160 156 159 163 158 155 151 147 145 143
118 95 0 332 291 217 200 177 172 134 268 110 83 47 2 341 247 222 218 204 201 188 165 167 165 169 220 203 190 179 180 178 173 168 165 163 160 164 169 169 163 156 150
226 195 108 275 277 240 209 198 172 187 241 186 147 130 63 337 349 311 256 208 219 187 180 184 166 164 189 220 208 185 190 192 186 180 177 177 175 176 170 175 173 170 162
238 226 224 242 250 223 213 214 201 185 202 238 200 165 164 203 286 308 302 261 287 227 208 199 180 177 181 193 220 200 195 205 201 194 191 190 187 186 189 187 176 167 165
251 228 220 237 240 235 226 222 217 218 196 216 232 232 203 162 170 233 295 303 294 248 244 226 195 186 180 185 198 195 189 198 200 200 198 196 197 199 202 198 189 186 182
251 231 217 219 231 240 235 234 226 215 214 217 217 207 199 238 195 180 229 270 299 273 254 244 220 186 183 180 194 200 191 194 199 204 200 194 192 195 199 200 205 202 199
256 241 231 222 231 240 240 235 228 216 222 226 229 220 199 195 196 187 206 233 253 275 281 248 233 212 192 191 194 186 198 201 207 207 205 201 198 200 202 210 216 215 216
263 243 242 227 235 242 247 245 237 229 223 226 227 232 225 219 211 217 206 228 261 274 267 257 234 221 203 195 197 185 200 205 213 214 209 208 203 204 208 212 217 220 226
252 247 239 234 237 239 244 246 244 242 237 233 235 235 239 228 211 220 204 196 243 265 249 244 240 219 216 197 218 201 205 210 217 217 212 207 204 204 208 211 215 223 228
261 258 250 244 240 238 237 238 240 237 239 240 237 232 240 236 221 224 217 204 199 225 240 238 228 221 214 206 226 217 212 219 219 217 212 200 197 200 205 212 217 222 228
258 257 254 247 244 241 238 234 238 233 234 243 243 234 238 240 228 224 223 221 220 215 236 234 238 260 257 259 245 235 228 223 215 212 210 203 199 201 205 210 217 220 221
253 251 253 250 245 241 239 236 237 233 231 239 242 236 237 233 228 225 223 222 223 215 229 259 264 262 256 248 245 245 243 223 218 220 213 209 206 206 208 211 217 217 219
256 254 253 251 250 248 243 239 238 237 231 232 235 234 237 234 229 229 224 226 220 214 210 235 251 242 249 239 229 229 260 253 232 229 220 215 212 213 212 214 220 220 219
260 259 253 250 251 250 247 246 239 238 235 233 232 231 233 229 232 233 232 225 221 223 213 217 243 244 250 235 220 249 253 261 256 234 222 217 216 218 222 227 230 228 224
259 260 260 254 253 253 249 244 240 240 239 237 234 233 232 229 226 226 233 224 213 214 217 217 231 234 239 231 198 210 246 246 267 261 234 225 223 225 230 233 232 230 228
276 270 267 269 263 252 245 243 241 235 237 239 240 241 239 236 230 230 229 218 208 211 211 214 222 229 229 219 209 206 232 248 269 252 223 219 216 218 224 231 232 229 230
284 279 270 271 270 265 265 256 247 237 236 235 241 243 245 241 238 241 240 233 220 213 213 213 221 221 226 225 216 206 209 227 254 240 226 239 212 223 228 222 234 236 235
278 279 277 275 276 274 273 265 250 247 239 236 238 241 248 245 242 239 241 241 237 236 232 220 216 222 220 213 204 213 214 221 243 226 245 253 217 228 231 241 242 237 236
275 274 275 272 275 273 273 269 258 249 248 244 239 238 243 242 237 236 231 234 235 234 236 231 224 225 223 214 207 214 216 226 262 244 215 254 239 230 241 238 240 232 232
282 280 283 276 270 271 273 272 263 246 247 252 249 246 242 235 238 239 231 233 238 243 247 241 233 231 231 230 219 194 200 211 244 247 219 229 242 248 240 233 232 230 233
275 283 287 287 281 278 279 280 267 241 247 251 253 250 247 243 241 239 226 225 234 238 229 232 227 229 225 223 225 213 206 213 227 238 212 207 226 223 253 234 222 220 225